• In United Kingdom
  • List of Countries
  • For 7 days
  • Water Temperature
  • Satellite Maps
  • Weather Map
  • Weather Widgets
  • user-avatar
    Login

    Hourly Weather Tarascha

    Today, 22 October, Monday

    Time Temperature Precipitation Wind Pressure Humidity
    00:00 +7°C° 0 mm 3 mps 752 mmHg 66%
    01:00 +7°C° 0 mm 3 mps 752 mmHg 68%
    02:00 +5°C° 0 mm 3 mps 752 mmHg 69%
    03:00 +5°C° 0 mm 3 mps 752 mmHg 71%
    04:00 +4°C° 0 mm 3 mps 752 mmHg 73%
    05:00 +4°C° 0 mm 3 mps 752 mmHg 74%
    06:00 +4°C° 0 mm 3 mps 752 mmHg 73%
    07:00 +5°C° 0 mm 3 mps 752 mmHg 72%
    08:00 +5°C° 0 mm 3 mps 752 mmHg 71%
    09:00 +8°C° 0 mm 3 mps 752 mmHg 64%
    10:00 +9°C° 0 mm 3 mps 752 mmHg 58%
    11:00 +11°C° 0 mm 3 mps 752 mmHg 51%
    12:00 +11°C° 0 mm 3 mps 751 mmHg 48%
    13:00 +13°C° 0 mm 2 mps 751 mmHg 45%
    14:00 +13°C° 0 mm 2 mps 751 mmHg 42%
    15:00 +12°C° 0 mm 2 mps 750 mmHg 46%
    16:00 +10°C° 0 mm 2 mps 750 mmHg 49%
    17:00 +9°C° 0 mm 2 mps 750 mmHg 52%
    18:00 +9°C° 0 mm 2 mps 749 mmHg 54%
    19:00 +9°C° 0 mm 1 mps 749 mmHg 57%
    20:00 +8°C° 0 mm 1 mps 749 mmHg 59%
    21:00 +8°C° 0 mm 1 mps 749 mmHg 61%
    22:00 +7°C° 0 mm 1 mps 749 mmHg 62%
    23:00 +7°C° 0 mm 1 mps 749 mmHg 64%

    Tomorrow, 23 October, Tuesday

    Time Temperature Precipitation Wind Pressure Humidity
    00:00 +6°C° 0 mm 2 mps 748 mmHg 66%
    01:00 +6°C° 0 mm 2 mps 748 mmHg 69%
    02:00 +5°C° 0 mm 2 mps 748 mmHg 71%
    03:00 +4°C° 0 mm 3 mps 747 mmHg 74%
    04:00 +4°C° 0 mm 3 mps 747 mmHg 77%
    05:00 +3°C° 0 mm 3 mps 746 mmHg 80%
    06:00 +4°C° 0 mm 3 mps 746 mmHg 78%
    07:00 +4°C° 0 mm 3 mps 746 mmHg 75%
    08:00 +5°C° 0 mm 4 mps 746 mmHg 73%
    09:00 +6°C° 0 mm 4 mps 745 mmHg 70%
    10:00 +7°C° 0 mm 5 mps 745 mmHg 67%
    11:00 +9°C° 0 mm 5 mps 745 mmHg 63%
    12:00 +9°C° 0 mm 5 mps 744 mmHg 66%
    13:00 +9°C° 0 mm 5 mps 744 mmHg 69%
    14:00 +9°C° 0 mm 6 mps 743 mmHg 71%
    15:00 +8°C° 0 mm 5 mps 742 mmHg 71%
    16:00 +8°C° 0 mm 5 mps 742 mmHg 70%
    17:00 +7°C° 0 mm 5 mps 741 mmHg 69%
    18:00 +7°C° 0 mm 4 mps 741 mmHg 69%
    19:00 +7°C° 0 mm 4 mps 740 mmHg 68%
    20:00 +6°C° 0 mm 4 mps 740 mmHg 67%
    21:00 +6°C° 0.3 mm 4 mps 739 mmHg 69%
    22:00 +6°C° 0.3 mm 5 mps 738 mmHg 71%
    23:00 +5°C° 0.3 mm 6 mps 737 mmHg 74%

    Day after tomorrow, 24 October, Wednesday

    Time Temperature Precipitation Wind Pressure Humidity
    00:00 +5°C° 0.4 mm 6 mps 736 mmHg 76%
    01:00 +5°C° 0.4 mm 7 mps 734 mmHg 79%
    02:00 +5°C° 0.4 mm 7 mps 733 mmHg 81%
    03:00 +5°C° 0.2 mm 7 mps 732 mmHg 81%
    04:00 +6°C° 0.2 mm 7 mps 731 mmHg 80%
    05:00 +6°C° 0.2 mm 7 mps 729 mmHg 80%
    06:00 +6°C° 0.1 mm 7 mps 729 mmHg 79%
    07:00 +6°C° 0.1 mm 8 mps 728 mmHg 78%
    08:00 +6°C° 0.1 mm 8 mps 727 mmHg 77%
    09:00 +8°C° 0.4 mm 7 mps 726 mmHg 75%
    10:00 +8°C° 0.4 mm 7 mps 726 mmHg 74%
    11:00 +8°C° 0.4 mm 7 mps 725 mmHg 72%
    12:00 +8°C° 0.1 mm 7 mps 725 mmHg 68%
    13:00 +8°C° 0.1 mm 7 mps 725 mmHg 64%
    14:00 +8°C° 0.1 mm 7 mps 725 mmHg 60%
    15:00 +6°C° 0 mm 7 mps 725 mmHg 62%
    16:00 +5°C° 0 mm 6 mps 725 mmHg 65%
    17:00 +4°C° 0 mm 6 mps 725 mmHg 67%
    18:00 +3°C° 0 mm 6 mps 725 mmHg 71%
    19:00 +3°C° 0 mm 5 mps 726 mmHg 75%
    20:00 +3°C° 0 mm 5 mps 726 mmHg 79%
    21:00 +3°C° 0.1 mm 5 mps 726 mmHg 80%
    22:00 +3°C° 0.1 mm 5 mps 726 mmHg 81%
    23:00 +3°C° 0.1 mm 6 mps 726 mmHg 81%

    25 October, Thursday

    Time Temperature Precipitation Wind Pressure Humidity
    00:00 +3°C° 0 mm 6 mps 727 mmHg 83%
    01:00 +3°C° 0 mm 6 mps 727 mmHg 85%
    02:00 +3°C° 0 mm 6 mps 727 mmHg 87%
    03:00 +3°C° 0 mm 6 mps 727 mmHg 85%
    04:00 +3°C° 0 mm 7 mps 728 mmHg 83%
    05:00 +4°C° 0 mm 7 mps 728 mmHg 81%
    06:00 +4°C° 0.1 mm 8 mps 729 mmHg 79%
    07:00 +4°C° 0.1 mm 8 mps 730 mmHg 77%
    08:00 +3°C° 0.1 mm 9 mps 731 mmHg 75%
    09:00 +3°C° 0.1 mm 9 mps 732 mmHg 72%
    10:00 +5°C° 0.1 mm 10 mps 732 mmHg 69%
    11:00 +5°C° 0.1 mm 10 mps 733 mmHg 65%
    12:00 +5°C° 0 mm 10 mps 734 mmHg 63%
    13:00 +5°C° 0 mm 10 mps 734 mmHg 60%
    14:00 +5°C° 0 mm 10 mps 735 mmHg 58%
    15:00 +5°C° 0 mm 10 mps 736 mmHg 60%
    16:00 +3°C° 0 mm 9 mps 736 mmHg 63%
    17:00 +4°C° 0 mm 8 mps 737 mmHg 65%
    18:00 +4°C° 0 mm 7 mps 737 mmHg 66%
    19:00 +4°C° 0 mm 6 mps 738 mmHg 67%
    20:00 +5°C° 0 mm 5 mps 738 mmHg 67%
    21:00 +3°C° 0 mm 5 mps 738 mmHg 70%
    22:00 +3°C° 0 mm 5 mps 738 mmHg 73%
    23:00 +3°C° 0 mm 4 mps 738 mmHg 76%

    26 October, Friday

    Time Temperature Precipitation Wind Pressure Humidity
    00:00 +3°C° 0.2 mm 4 mps 738 mmHg 78%
    01:00 +4°C° 0.2 mm 4 mps 738 mmHg 81%
    02:00 +4°C° 0.2 mm 4 mps 737 mmHg 83%
    03:00 +4°C° 0.2 mm 4 mps 737 mmHg 85%
    04:00 +5°C° 0.2 mm 4 mps 737 mmHg 87%
    05:00 +5°C° 0.2 mm 4 mps 737 mmHg 89%
    06:00 +6°C° 0.1 mm 4 mps 738 mmHg 89%
    07:00 +6°C° 0.1 mm 4 mps 738 mmHg 89%
    08:00 +7°C° 0.1 mm 4 mps 738 mmHg 89%
    09:00 +8°C° 0.1 mm 5 mps 739 mmHg 81%
    10:00 +9°C° 0.1 mm 6 mps 740 mmHg 73%
    11:00 +10°C° 0.1 mm 6 mps 740 mmHg 65%
    12:00 +10°C° 0.1 mm 6 mps 740 mmHg 62%
    13:00 +10°C° 0.1 mm 6 mps 741 mmHg 59%
    14:00 +12°C° 0.1 mm 5 mps 741 mmHg 56%
    15:00 +10°C° 0 mm 5 mps 741 mmHg 61%
    16:00 +10°C° 0 mm 4 mps 742 mmHg 67%
    17:00 +10°C° 0 mm 3 mps 742 mmHg 72%
    18:00 +9°C° 0 mm 3 mps 743 mmHg 76%
    19:00 +9°C° 0 mm 3 mps 743 mmHg 80%
    20:00 +8°C° 0 mm 3 mps 743 mmHg 85%
    21:00 +8°C° 0 mm 3 mps 744 mmHg 86%
    22:00 +8°C° 0 mm 3 mps 744 mmHg 88%
    23:00 +7°C° 0 mm 3 mps 744 mmHg 89%

    27 October, Saturday

    Time Temperature Precipitation Wind Pressure Humidity
    00:00 +7°C° 0 mm 3 mps 744 mmHg 89%
    01:00 +6°C° 0 mm 4 mps 744 mmHg 88%
    02:00 +6°C° 0 mm 4 mps 744 mmHg 87%
    03:00 +6°C° 0 mm 4 mps 744 mmHg 85%
    04:00 +6°C° 0 mm 4 mps 744 mmHg 83%
    05:00 +6°C° 0 mm 4 mps 744 mmHg 82%
    06:00 +6°C° 0 mm 4 mps 744 mmHg 79%
    07:00 +7°C° 0 mm 4 mps 744 mmHg 77%
    08:00 +7°C° 0 mm 4 mps 744 mmHg 75%
    09:00 +9°C° 0 mm 5 mps 744 mmHg 69%
    10:00 +10°C° 0 mm 5 mps 743 mmHg 64%
    11:00 +13°C° 0 mm 6 mps 743 mmHg 58%
    12:00 +14°C° 0 mm 6 mps 743 mmHg 58%
    13:00 +14°C° 0 mm 6 mps 743 mmHg 58%
    14:00 +15°C° 0 mm 6 mps 742 mmHg 57%
    15:00 +14°C° 0.1 mm 5 mps 742 mmHg 61%
    16:00 +13°C° 0.1 mm 5 mps 742 mmHg 65%
    17:00 +13°C° 0.1 mm 5 mps 742 mmHg 69%
    18:00 +13°C° 0 mm 5 mps 742 mmHg 67%
    19:00 +12°C° 0 mm 5 mps 742 mmHg 66%
    20:00 +12°C° 0 mm 5 mps 743 mmHg 65%
    21:00 +12°C° 0 mm 5 mps 743 mmHg 63%
    22:00 +11°C° 0 mm 6 mps 743 mmHg 60%
    23:00 +11°C° 0 mm 6 mps 743 mmHg 58%

    28 October, Sunday

    Time Temperature Precipitation Wind Pressure Humidity
    00:00 +11°C° 0 mm 6 mps 742 mmHg 61%
    01:00 +10°C° 0 mm 6 mps 742 mmHg 65%
    02:00 +10°C° 0 mm 6 mps 742 mmHg 69%
    03:00 +10°C° 0 mm 6 mps 742 mmHg 71%
    04:00 +10°C° 0 mm 6 mps 742 mmHg 73%
    05:00 +9°C° 0 mm 6 mps 742 mmHg 75%
    06:00 +9°C° 0 mm 6 mps 742 mmHg 74%
    07:00 +10°C° 0 mm 6 mps 743 mmHg 73%
    08:00 +10°C° 0 mm 6 mps 743 mmHg 71%
    09:00 +13°C° 0 mm 6 mps 743 mmHg 66%
    10:00 +14°C° 0 mm 6 mps 743 mmHg 60%
    11:00 +16°C° 0 mm 6 mps 743 mmHg 55%
    12:00 +17°C° 0 mm 6 mps 743 mmHg 53%
    13:00 +19°C° 0 mm 6 mps 743 mmHg 50%
    14:00 +20°C° 0 mm 6 mps 743 mmHg 48%
    15:00 +19°C° 0 mm 5 mps 743 mmHg 52%
    16:00 +17°C° 0 mm 5 mps 743 mmHg 55%
    17:00 +16°C° 0 mm 5 mps 743 mmHg 59%
    18:00 +16°C° 0 mm 5 mps 743 mmHg 61%
    19:00 +15°C° 0 mm 5 mps 743 mmHg 64%
    20:00 +15°C° 0 mm 5 mps 743 mmHg 67%
    21:00 +15°C° 0 mm 5 mps 743 mmHg 69%
    22:00 +14°C° 0 mm 5 mps 743 mmHg 72%
    23:00 +14°C° 0 mm 5 mps 743 mmHg 74%
    Show more